Weather History for KDIK - August, 2012

Change the Weather History Date:

Tuesday, August 21, 2012

  Actual Average Record
Temperature  
Mean Temperature 74 °F 68 °F  
Max Temperature 92 °F 83 °F 100 °F (1947)
Min Temperature 55 °F 53 °F 35 °F (1945)
Degree Days  
Heating Degree Days 0 2  
Month to date heating degree days 36 25  
Since 1 June heating degree days 105 196  
Since 1 July heating degree days 37 59  
Cooling Degree Days 9 4  
Month to date cooling degree days 73 118  
Year to date cooling degree days 486 347  
Since 1 June cooling degree days 473 337  
Growing Degree Days 23 (Base 50)    
Moisture  
Dew Point 41 °F    
Average Humidity 41    
Maximum Humidity 66    
Minimum Humidity 15    
Precipitation  
Precipitation 0.00 in 0.05 in 1.80 in (1998)
Month to date precipitation 1.15 1.04  
Year to date precipitation 8.40 11.79  
Sea Level Pressure  
Sea Level Pressure 29.89 in    
Wind  
Wind Speed 8 mph (South)    
Max Wind Speed 14 mph    
Max Gust Speed 20 mph    
Visibility 10 miles    
Events      
T = Trace of Precipitation, MM = Missing Value Source: NWS Daily Summary

Daily Weather History Graph

Daily Weather History Graph

Search for Another Location

Airport or City:

Trip Planner

Search our weather history database for the weather conditions in past years. The results will help you decide how hot, cold, wet, or windy it might be!

Date:

Astronomy

Aug. 21, 2012 Rise Set
Actual Time 5:57 AM MDT 7:50 PM MDT
Civil Twilight 5:24 AM MDT 8:22 PM MDT
Nautical Twilight 4:44 AM MDT 9:02 PM MDT
Astronomical Twilight 4:01 AM MDT 9:45 PM MDT
Moon 10:53 AM MDT (8/21) 9:27 PM MDT (8/21)
Length of Visible Light 14h 57m
Length of Day
13h 52m
Waxing Crescent, 20% of the Moon is Illuminated
Aug 21
Waxing Crescent
Aug 24
First Quarter
Aug 31
Full
Sep 8
Last Quarter
Sep 15
New

Hourly Weather History & Observations

Time (MDT) Temp. Dew Point Humidity Pressure Visibility Wind Dir Wind Speed Gust Speed Precip Events Conditions
12:56 AM 63.0 °F 46.9 °F 56% 29.94 in 10.0 mi South 10.4 mph - N/A   Clear
1:56 AM 61.0 °F 46.0 °F 58% 29.93 in 10.0 mi South 9.2 mph - N/A   Clear
2:56 AM 59.0 °F 45.0 °F 60% 29.93 in 10.0 mi SSW 9.2 mph - N/A   Clear
3:56 AM 57.9 °F 44.1 °F 60% 29.93 in 10.0 mi SSW 8.1 mph - N/A   Clear
4:56 AM 57.9 °F 44.1 °F 60% 29.92 in 10.0 mi South 10.4 mph - N/A   Clear
5:56 AM 55.0 °F 44.1 °F 67% 29.93 in 10.0 mi South 10.4 mph - N/A   Clear
6:56 AM 60.1 °F 46.0 °F 60% 29.93 in 10.0 mi SSW 11.5 mph - N/A   Clear
7:56 AM 68.0 °F 46.9 °F 47% 29.93 in 10.0 mi SSW 10.4 mph - N/A   Clear
8:56 AM 77.0 °F 46.9 °F 34% 29.92 in 10.0 mi SW 8.1 mph - N/A   Clear
9:56 AM 82.0 °F 46.0 °F 28% 29.92 in 10.0 mi SSW 5.8 mph - N/A   Clear
10:56 AM 86.0 °F 39.9 °F 20% 29.91 in 10.0 mi Variable 5.8 mph - N/A   Clear
11:56 AM 87.1 °F 35.1 °F 16% 29.91 in 10.0 mi South 3.5 mph - N/A   Clear
1:56 PM 90.0 °F 36.0 °F 15% 29.88 in 10.0 mi Variable 6.9 mph - N/A   Clear
2:56 PM 91.9 °F 37.0 °F 15% 29.86 in 10.0 mi East 5.8 mph - N/A   Clear
3:56 PM 90.0 °F 37.0 °F 15% 29.85 in 10.0 mi Variable 3.5 mph - N/A   Clear
4:56 PM 90.0 °F 37.0 °F 15% 29.85 in 10.0 mi East 5.8 mph - N/A   Clear
5:56 PM 89.1 °F 37.9 °F 16% 29.85 in 10.0 mi SE 10.4 mph 18.4 mph N/A   Clear
6:56 PM 82.9 °F 41.0 °F 23% 29.84 in 10.0 mi SSE 6.9 mph - N/A   Clear
7:56 PM 73.9 °F 39.0 °F 28% 29.83 in 9.0 mi SE 9.2 mph - N/A   Clear
8:56 PM 68.0 °F 39.9 °F 36% 29.84 in 10.0 mi SSE 9.2 mph - N/A   Clear
10:56 PM 64.0 °F 37.9 °F 38% 29.83 in 10.0 mi South 10.4 mph - N/A   Clear
11:56 PM 62.1 °F 37.9 °F 41% 29.82 in 10.0 mi SSE 9.2 mph - N/A   Clear